Location: Unspecified
(0.0000°N, 0.0000°E)
Time: 20:18:54
(UTC+00:00)

S-56A Canister/Altair - Visible Passes

Search period start: 14 July 2020 00:00
Search period end: 24 July 2020 00:00
Orbit: 633 x 2499 km, 38.9° (Epoch: 13 July)

Date Brightness Start Highest point End Pass type
(mag) Time Alt. Az. Time Alt. Az. Time Alt. Az.
14 Jul 10.5 21:28:22 10° NNW 21:30:11 16° NNW 21:30:11 16° NNW visible
15 Jul 10.1 20:55:23 10° NNW 20:59:12 20° N 20:59:12 20° N visible
16 Jul 9.9 20:22:22 10° NNW 20:28:15 21° NNE 20:28:15 21° NNE visible
17 Jul 9.9 19:49:17 10° NNW 19:55:17 19° NNE 19:57:20 17° NE visible
17 Jul 10.6 21:53:11 10° NW 21:54:46 16° NW 21:54:46 16° NW visible
18 Jul 10.2 19:16:10 10° N 19:22:07 17° NNE 19:26:27 11° ENE visible
18 Jul 9.9 21:19:50 10° NW 21:23:53 29° NW 21:23:53 29° NW visible
19 Jul 10.4 18:43:01 10° N 18:48:51 16° NNE 18:53:37 10° ENE visible
19 Jul 9.1 20:46:27 10° NW 20:53:03 46° NNW 20:53:03 46° NNW visible
20 Jul 8.6 20:13:03 10° NW 20:22:15 54° NE 20:22:15 54° NE visible
21 Jul 8.9 19:39:36 10° NW 19:49:20 47° NE 19:51:29 38° ENE visible
21 Jul 10.6 21:46:46 10° WNW 21:48:55 17° W 21:48:55 17° W visible
22 Jul 9.4 19:06:08 10° NNW 19:16:15 41° NE 19:20:45 22° E visible
22 Jul 9.8 21:12:54 10° WNW 21:18:11 31° W 21:18:11 31° W visible
23 Jul 9.8 18:32:39 10° NNW 18:43:05 37° NE 18:50:03 11° E visible
23 Jul 9.0 20:39:03 10° WNW 20:47:29 51° WSW 20:47:29 51° WSW visible
